Pittsfield, MA

4:41 PM EDT on August 28, 2016 (GMT -0400)
Pittsfield Municipal

Weather History for KPSF - January, 2013

Change the Weather History Date:

Sunday, January 13, 2013

  Actual Average Record
Temperature  
Mean Temperature 40 °F 20 °F  
Max Temperature 46 °F 29 °F 55 °F (1932)
Min Temperature 34 °F 11 °F -12 °F (1968)
Degree Days  
Heating Degree Days 25 45  
Month to date heating degree days 508 578  
Since 1 July heating degree days 3044 3416  
Cooling Degree Days 0 0  
Month to date cooling degree days 0 0  
Year to date cooling degree days 0 0  
Moisture  
Dew Point 41 °F    
Average Humidity 97    
Maximum Humidity 100    
Minimum Humidity 93    
Precipitation  
Precipitation 0.00 in 0.09 in 0.78 in (1934)
Month to date precipitation 0.17 1.41  
Year to date precipitation 0.17 1.41  
Sea Level Pressure  
Sea Level Pressure 30.01 in    
Wind  
Wind Speed 1 mph (South)    
Max Wind Speed 12 mph    
Max Gust Speed 26 mph    
Visibility 1 miles    
Events Fog    
T = Trace of Precipitation, MM = Missing Value Source: NWS Daily Summary

Daily Weather History Graph

Daily Weather History Graph

Search for Another Location

Airport or City:

Trip Planner

Search our weather history database for the weather conditions in past years. The results will help you decide how hot, cold, wet, or windy it might be!

Date:

Astronomy

Jan. 13, 2013 Rise Set
Actual Time 7:20 AM EST 4:43 PM EST
Civil Twilight 6:49 AM EST 5:14 PM EST
Nautical Twilight 6:14 AM EST 5:49 PM EST
Astronomical Twilight 5:40 AM EST 6:23 PM EST
Moon 8:14 AM EST (1/13) 7:22 PM EST (1/13)
Length of Visible Light 10h 25m
Length of Day
9h 22m
Waxing Crescent, 5% of the Moon is Illuminated
Jan 13
Waxing Crescent
Jan 18
First Quarter
Jan 26
Full
Feb 3
Last Quarter
Feb 10
New

Hourly Weather History & Observations

Time (EST) Temp. Windchill Dew Point Humidity Pressure Visibility Wind Dir Wind Speed Gust Speed Precip Events Conditions
12:54 AM 35.1 °F - 35.1 °F 100% 30.11 in 0.2 mi Calm Calm - N/A Fog Fog
1:09 AM 35.6 °F - 35.6 °F 100% 30.10 in 0.5 mi Calm Calm - N/A Fog Fog
1:19 AM 35.6 °F - 35.6 °F 100% 30.09 in 0.2 mi Calm Calm - N/A Fog Fog
1:54 AM 36.0 °F 33.3 °F 36.0 °F 100% 30.12 in 0.2 mi SW 3.5 mph - N/A Fog Fog
2:54 AM 36.0 °F - 36.0 °F 100% 30.09 in 0.2 mi Calm Calm - N/A Fog Fog
3:54 AM 35.1 °F - 35.1 °F 100% 30.07 in 0.2 mi Calm Calm - N/A Fog Fog
4:54 AM 34.0 °F - 34.0 °F 100% 30.07 in 0.2 mi Calm Calm - N/A Fog Fog
5:44 AM 35.6 °F - 35.6 °F 100% 30.06 in 0.5 mi Calm Calm - N/A Fog Fog
5:54 AM 36.0 °F - 36.0 °F 100% 30.08 in 0.5 mi Calm Calm - N/A Fog Fog
6:46 AM 35.6 °F - 33.8 °F 93% 30.06 in 0.2 mi Calm Calm - N/A Fog Fog
6:54 AM 35.1 °F 32.2 °F 35.1 °F 100% 30.08 in 0.2 mi NNW 3.5 mph - N/A Fog Fog
7:54 AM 35.1 °F - 35.1 °F 100% 30.09 in 0.2 mi Calm Calm - N/A Fog Fog
8:54 AM 36.0 °F - 36.0 °F 100% 30.10 in 0.2 mi Calm Calm - N/A Fog Fog
9:54 AM 37.0 °F - 37.0 °F 100% 30.10 in 0.2 mi Calm Calm - N/A Fog Fog
10:54 AM 37.9 °F 35.5 °F 37.0 °F 97% 30.08 in 0.2 mi NNE 3.5 mph - N/A Fog Fog
11:54 AM 39.0 °F - 39.0 °F 100% 30.05 in 0.2 mi Calm Calm - N/A Fog Fog
12:25 PM 42.8 °F 38.0 °F 42.8 °F 100% 30.03 in 0.8 mi SSE 8.1 mph - N/A   Overcast
12:52 PM 42.8 °F - 42.8 °F 100% 30.01 in 0.2 mi Calm Calm - N/A Fog Fog
12:54 PM 43.0 °F 41.3 °F 43.0 °F 100% 30.02 in 0.2 mi Variable 3.5 mph - N/A Fog Fog
1:01 PM 42.8 °F 41.1 °F 42.8 °F 100% 30.01 in 0.5 mi Variable 3.5 mph - N/A Fog Fog
1:32 PM 44.6 °F 40.2 °F 44.6 °F 100% 29.99 in 2.0 mi South 8.1 mph - N/A   Overcast
1:39 PM 42.8 °F 39.3 °F 42.8 °F 100% 30.00 in 0.8 mi WNW 5.8 mph - N/A   Overcast
1:54 PM 42.1 °F - 42.1 °F 100% 30.00 in 0.2 mi Calm Calm - N/A Fog Fog
2:54 PM 44.1 °F - 44.1 °F 100% 29.99 in 0.5 mi Calm Calm - N/A Fog Fog
3:06 PM 42.8 °F - 42.8 °F 100% 29.98 in 0.2 mi Calm Calm - N/A Fog Fog
3:37 PM 42.8 °F 39.3 °F 42.8 °F 100% 29.96 in 0.5 mi East 5.8 mph - N/A Fog Fog
3:44 PM 44.6 °F 41.4 °F 42.8 °F 93% 29.96 in 0.2 mi ENE 5.8 mph - N/A Fog Fog
3:54 PM 45.0 °F - 45.0 °F 100% 29.96 in 1.0 mi Calm Calm - N/A   Overcast
4:06 PM 46.4 °F 44.3 °F 46.4 °F 100% 29.96 in 2.5 mi Variable 4.6 mph - N/A   Overcast
4:24 PM 46.4 °F 43.5 °F 44.6 °F 93% 29.96 in 4.0 mi SSW 5.8 mph - N/A   Overcast
4:54 PM 46.0 °F 43.1 °F 45.0 °F 96% 29.98 in 2.0 mi South 5.8 mph - N/A   Overcast
5:07 PM 44.6 °F 42.2 °F 44.6 °F 100% 29.98 in 0.8 mi NW 4.6 mph - N/A   Overcast
5:18 PM 42.8 °F 40.1 °F 42.8 °F 100% 29.99 in 0.2 mi WNW 4.6 mph - N/A Fog Fog
5:54 PM 41.0 °F 38.0 °F 41.0 °F 100% 29.99 in 0.2 mi SE 4.6 mph - N/A Fog Fog
6:16 PM 42.8 °F 40.1 °F 42.8 °F 100% 29.98 in 0.8 mi SSW 4.6 mph - N/A   Overcast
6:27 PM 42.8 °F - 42.8 °F 100% 29.99 in 1.2 mi Calm Calm - N/A   Overcast
6:37 PM 44.6 °F - 42.8 °F 93% 29.98 in 0.8 mi Calm Calm - N/A   Overcast
6:46 PM 44.6 °F 42.2 °F 44.6 °F 100% 29.98 in 1.5 mi SW 4.6 mph - N/A   Overcast
6:48 PM 44.6 °F 42.2 °F 44.6 °F 100% 29.98 in 3.0 mi Variable 4.6 mph - N/A   Overcast
6:54 PM 45.0 °F 42.6 °F 45.0 °F 100% 29.99 in 4.0 mi South 4.6 mph - N/A   Overcast
7:28 PM 44.6 °F - 44.6 °F 100% 29.99 in 1.8 mi Calm Calm - N/A   Overcast
7:39 PM 44.6 °F - 44.6 °F 100% 29.99 in 0.5 mi Calm Calm - N/A Fog Fog
7:54 PM 43.0 °F - 43.0 °F 100% 29.99 in 0.8 mi Calm Calm - N/A   Overcast
8:04 PM 44.6 °F 41.4 °F 42.8 °F 93% 29.97 in 1.2 mi South 5.8 mph - N/A   Overcast
8:13 PM 44.6 °F 42.2 °F 44.6 °F 100% 29.98 in 2.5 mi South 4.6 mph - N/A   Overcast
8:30 PM 44.6 °F 42.2 °F 44.6 °F 100% 29.97 in 1.0 mi South 4.6 mph - N/A   Overcast
8:45 PM 44.6 °F 41.4 °F 44.6 °F 100% 29.97 in 0.8 mi SSW 5.8 mph - N/A   Overcast
8:54 PM 44.1 °F - 44.1 °F 100% 29.98 in 1.2 mi Calm Calm - N/A   Overcast
9:04 PM 44.6 °F 41.4 °F 44.6 °F 100% 29.96 in 0.8 mi South 5.8 mph - N/A   Overcast
9:13 PM 42.8 °F - 42.8 °F 100% 29.96 in 1.0 mi Calm Calm - N/A   Overcast
9:32 PM 44.6 °F - 44.6 °F 100% 29.96 in 2.0 mi Calm Calm - N/A   Overcast
9:42 PM 42.8 °F 41.1 °F 42.8 °F 100% 29.96 in 1.0 mi South 3.5 mph - N/A   Overcast
9:49 PM 44.6 °F - 44.6 °F 100% 29.96 in 0.8 mi Calm Calm - N/A   Overcast
9:54 PM 44.1 °F - 44.1 °F 100% 29.96 in 0.8 mi Calm Calm - N/A   Overcast
10:25 PM 42.8 °F 40.1 °F 42.8 °F 100% 29.96 in 0.2 mi South 4.6 mph - N/A Fog Fog
10:54 PM 42.1 °F - 42.1 °F 100% 29.96 in 0.2 mi Calm Calm - N/A Fog Fog
11:06 PM 42.8 °F 39.3 °F 42.8 °F 100% 29.96 in 0.5 mi SSE 5.8 mph - N/A Fog Fog
11:54 PM 43.0 °F - 42.1 °F 97% 29.95 in 0.5 mi Calm Calm - N/A Fog Fog